This demonstration page uses our WeatherBlox Daily Observations layout. Learn more.

Left ArrowRight Arrow

Hourly Observations for January 15, 2015

Temp ( °F °C ) Dew Point ( °F °C ) Humidity (%) Winds ( mph kmh ) Pressure ( in mb ) Visibility ( mi km ) Precip ( " mm )
12:51 am 00:51 Clear 39 3.9 35 1.7 86 86 SSE 12 19 30.25 1024 10 16 0.00 0.00
1:51 am 01:51 Clear 38 3.3 34 1.1 86 86 SE 9 15 30.26 1025 10 16 0.00 0.00
2:51 am 02:51 Clear 37 2.8 34 1.1 89 89 ESE 9 15 30.27 1025 10 16 0.00 0.00
3:51 am 03:51 Clear 36 2.2 33 0.6 89 89 SE 9 15 30.27 1025 10 16 0.00 0.00
4:51 am 04:51 Clear 37 2.8 34 1.1 89 89 E 10 17 30.27 1025 10 16 0.00 0.00
5:51 am 05:51 Clear 36 2.2 33 0.6 89 89 SE 9 15 30.29 1026 10 16 0.00 0.00
6:51 am 06:51 Clear 36 2.2 33 0.6 89 89 SE 9 15 30.31 1027 10 16 0.00 0.00
7:51 am 07:51 Sunny 36 2.2 33 0.6 89 89 ESE 14 22 30.34 1027 10 16 0.00 0.00
8:51 am 08:51 Sunny 39 3.9 34 1.1 82 82 SE 13 20 30.37 1028 10 16 0.00 0.00
9:51 am 09:51 Sunny 43 6.1 36 2.2 76 76 ESE 13 20 30.38 1029 10 16 0.00 0.00
10:51 am 10:51 Sunny 45 7.2 36 2.2 71 71 SE 12 19 30.38 1029 10 16 0.00 0.00
11:51 am 11:51 Sunny 50 10 38 3.3 63 63 SE 7 11 30.35 1028 10 16 0.00 0.00
12:51 pm 12:51 Sunny 52 11.1 36 2.2 55 55 SSE 8 13 30.31 1026 10 16 0.00 0.00
1:51 pm 13:51 Sunny 54 12.2 35 1.7 49 49 VRB 5 7 30.28 1025 10 16 0.00 0.00
2:51 pm 14:51 Sunny 57 13.9 35 1.7 44 44 S 8 13 30.27 1025 10 16 0.00 0.00
3:51 pm 15:51 Sunny 57 13.9 34 1.1 42 42 SE 7 11 30.25 1025 10 16 0.00 0.00
4:51 pm 16:51 Sunny 57 13.9 34 1.1 42 42 ESE 3 6 30.24 1024 10 16 0.00 0.00
5:51 pm 17:51 Clear 53 11.7 38 3.3 57 57 E 8 13 30.25 1025 10 16 0.00 0.00
6:51 pm 18:51 Clear 50 10 39 3.9 66 66 E 9 15 30.27 1025 10 16 0.00 0.00
7:51 pm 19:51 Clear 49 9.4 38 3.3 66 66 ESE 7 11 30.29 1026 10 16 0.00 0.00
8:51 pm 20:51 Clear 45 7.2 36 2.2 71 71 SSE 7 11 30.31 1026 10 16 0.00 0.00
9:51 pm 21:51 Clear 44 6.7 35 1.7 71 71 SSE 8 13 30.32 1027 10 16 0.00 0.00
10:51 pm 22:51 Clear 43 6.1 35 1.7 74 74 E 9 15 30.33 1027 10 16 0.00 0.00
11:51 pm 23:51 Clear 43 6.1 35 1.7 74 74 SE 7 11 30.32 1027 10 16 0.00 0.00

Powered by AerisWeather